Mason, MI

9:08 AM EDT on June 23, 2017 (GMT -0400)
Mason Jewett

Weather History for KTEW - April, 2013

Change the Weather History Date:

Saturday, April 20, 2013

  Actual Average (KLAN) Record (KLAN)
Temperature  
Mean Temperature 34 °F -  
Max Temperature 39 °F 61 °F 82 °F (1987)
Min Temperature 28 °F 40 °F 18 °F (1904)
Degree Days  
Heating Degree Days 32    
Moisture  
Dew Point 21 °F    
Average Humidity 59    
Maximum Humidity 86    
Minimum Humidity 45    
Precipitation  
Precipitation 0.00 in - - ()
Sea Level Pressure  
Sea Level Pressure 30.16 in    
Wind  
Wind Speed 12 mph (WNW)    
Max Wind Speed 20 mph    
Max Gust Speed 25 mph    
Visibility 10 miles    
Events Snow    
Averages and records for this station are not official NWS values.
T = Trace of Precipitation, MM = Missing Value Source: NWS Daily Summary

Daily Weather History Graph

Daily Weather History Graph

Search for Another Location

Airport or City:

Trip Planner

Search our weather history database for the weather conditions in past years. The results will help you decide how hot, cold, wet, or windy it might be!

Date:

Astronomy

Apr. 20, 2013 Rise Set
Actual Time 6:48 AM EDT 8:25 PM EDT
Civil Twilight 6:18 AM EDT 8:55 PM EDT
Nautical Twilight 5:42 AM EDT 9:31 PM EDT
Astronomical Twilight 5:04 AM EDT 10:10 PM EDT
Moon 3:02 PM EDT (4/20) 3:44 AM EDT (4/20)
Length of Visible Light 14h 36m
Length of Day
13h 37m
Waxing Gibbous, 71% of the Moon is Illuminated
Apr 20
Waxing Gibbous
Apr 25
Full
May 2
Last Quarter
May 9
New
May 18
First Quarter

Hourly Weather History & Observations

Time (EDT) Temp. Windchill Dew Point Humidity Pressure Visibility Wind Dir Wind Speed Gust Speed Precip Events Conditions
12:17 AM 33.1 °F 26.9 °F 29.3 °F 86% 29.75 in 10.0 mi WSW 6.9 mph - N/A   Overcast
12:36 AM 33.3 °F 27.1 °F 29.3 °F 85% 29.75 in 10.0 mi West 6.9 mph - N/A   Overcast
4:01 AM 32.0 °F 20.8 °F 23.5 °F 71% 29.84 in 10.0 mi West 17.3 mph 21.9 mph N/A   Mostly Cloudy
4:15 AM 32.0 °F 22.5 °F 22.6 °F 68% 29.86 in 10.0 mi West 12.7 mph 25.3 mph N/A   Mostly Cloudy
4:36 AM 32.0 °F 22.5 °F 22.1 °F 67% 29.87 in 10.0 mi West 12.7 mph 23.0 mph N/A   Scattered Clouds
4:56 AM 32.0 °F 22.1 °F 21.2 °F 64% 29.88 in 10.0 mi WNW 13.8 mph 25.3 mph N/A   Overcast
5:15 AM 31.6 °F 22.1 °F 21.2 °F 65% 29.89 in 10.0 mi West 12.7 mph 20.7 mph N/A   Overcast
5:36 AM 31.6 °F 21.6 °F 20.1 °F 62% 29.91 in 10.0 mi WNW 13.8 mph 23.0 mph N/A   Overcast
5:56 AM 30.2 °F 17.8 °F 19.4 °F 64% 29.92 in 10.0 mi WNW 19.6 mph 24.2 mph N/A   Mostly Cloudy
6:15 AM 29.7 °F 18.2 °F 18.9 °F 64% 29.93 in 10.0 mi WNW 16.1 mph 20.7 mph N/A   Scattered Clouds
6:36 AM 29.3 °F 17.7 °F 16.7 °F 59% 29.95 in 10.0 mi WNW 16.1 mph 20.7 mph N/A   Clear
6:56 AM 28.8 °F 19.0 °F 16.9 °F 61% 29.96 in 10.0 mi WNW 11.5 mph 20.7 mph N/A   Clear
7:16 AM 28.6 °F 20.7 °F 17.4 °F 63% 29.98 in 10.0 mi WNW 8.1 mph - N/A   Clear
7:36 AM 29.3 °F 20.8 °F 17.6 °F 62% 30.00 in 10.0 mi West 9.2 mph 16.1 mph N/A   Clear
7:56 AM 29.8 °F 20.3 °F 17.6 °F 60% 30.01 in 10.0 mi West 11.5 mph - N/A   Clear
8:16 AM 30.2 °F 18.9 °F 18.0 °F 60% 30.02 in 10.0 mi WNW 16.1 mph 19.6 mph N/A   Clear
8:36 AM 30.7 °F 22.0 °F 19.0 °F 62% 30.03 in 10.0 mi WNW 10.4 mph 17.3 mph N/A   Mostly Cloudy
8:56 AM 31.3 °F 21.6 °F 19.4 °F 61% 30.05 in 10.0 mi WNW 12.7 mph - N/A   Overcast
9:16 AM 31.1 °F 20.5 °F 19.2 °F 61% 30.06 in 10.0 mi WNW 15.0 mph 18.4 mph N/A   Overcast
9:36 AM 31.3 °F 20.3 °F 18.9 °F 60% 30.07 in 10.0 mi WNW 16.1 mph 20.7 mph N/A   Overcast
9:56 AM 31.8 °F 23.3 °F 18.9 °F 59% 30.08 in 10.0 mi WNW 10.4 mph 19.6 mph N/A   Overcast
10:16 AM 32.0 °F 20.8 °F 19.2 °F 59% 30.10 in 10.0 mi WNW 17.3 mph 25.3 mph N/A   Overcast
10:36 AM 32.2 °F 21.8 °F 19.6 °F 60% 30.11 in 10.0 mi NW 15.0 mph 21.9 mph N/A   Mostly Cloudy
10:56 AM 33.1 °F 22.6 °F 19.2 °F 57% 30.12 in 10.0 mi West 16.1 mph 19.6 mph N/A   Mostly Cloudy
11:16 AM 33.1 °F 22.2 °F 19.2 °F 57% 30.13 in 10.0 mi West 17.3 mph 24.2 mph N/A   Mostly Cloudy
11:37 AM 34.3 °F 25.5 °F 21.2 °F 59% 30.14 in 10.0 mi WNW 12.7 mph 18.4 mph N/A   Mostly Cloudy
11:56 AM 34.0 °F 24.6 °F 20.1 °F 57% 30.15 in 10.0 mi WNW 13.8 mph 18.4 mph N/A   Overcast
12:16 PM 34.7 °F 25.5 °F 20.1 °F 55% 30.16 in 10.0 mi WNW 13.8 mph 17.3 mph N/A   Overcast
12:36 PM 34.7 °F 25.9 °F 21.7 °F 59% 30.16 in 10.0 mi WNW 12.7 mph 19.6 mph N/A   Overcast
12:56 PM 34.9 °F 24.9 °F 21.2 °F 57% 30.17 in 10.0 mi WNW 16.1 mph 20.7 mph N/A   Overcast
1:16 PM 35.4 °F 25.6 °F 22.3 °F 59% 30.18 in 10.0 mi West 16.1 mph 20.7 mph N/A   Overcast
1:36 PM 36.0 °F 26.3 °F 21.4 °F 55% 30.19 in 10.0 mi West 16.1 mph 21.9 mph N/A   Overcast
1:56 PM 35.6 °F 27.5 °F 21.9 °F 58% 30.20 in 10.0 mi WNW 11.5 mph 19.6 mph N/A   Overcast
2:16 PM 36.7 °F 26.9 °F 21.4 °F 54% 30.21 in 10.0 mi WNW 17.3 mph - N/A   Overcast
2:36 PM 36.1 °F 27.3 °F 19.6 °F 51% 30.21 in 10.0 mi West 13.8 mph 23.0 mph N/A   Overcast
2:56 PM 36.5 °F 28.7 °F 21.4 °F 54% 30.22 in 10.0 mi West 11.5 mph - N/A   Overcast
3:16 PM 36.3 °F 26.4 °F 21.6 °F 55% 30.23 in 10.0 mi West 17.3 mph 24.2 mph N/A Snow Light Snow
3:36 PM 38.1 °F 29.5 °F 21.0 °F 50% 30.24 in 10.0 mi West 15.0 mph 19.6 mph N/A   Mostly Cloudy
3:56 PM 37.2 °F 28.3 °F 22.8 °F 56% 30.25 in 10.0 mi NW 15.0 mph - N/A   Mostly Cloudy
4:16 PM 38.3 °F 29.7 °F 21.9 °F 52% 30.25 in 10.0 mi WNW 15.0 mph 18.4 mph N/A   Overcast
4:37 PM 38.5 °F 30.3 °F 25.3 °F 59% 30.26 in 10.0 mi WNW 13.8 mph 20.7 mph N/A   Overcast
4:56 PM 38.3 °F 30.5 °F 21.0 °F 50% 30.26 in 10.0 mi West 12.7 mph 19.6 mph N/A   Mostly Cloudy
5:16 PM 39.0 °F 31.4 °F 21.2 °F 49% 30.27 in 10.0 mi West 12.7 mph 19.6 mph N/A   Overcast
5:37 PM 37.6 °F 29.1 °F 17.8 °F 45% 30.28 in 10.0 mi WNW 13.8 mph 20.7 mph N/A   Overcast
5:56 PM 37.2 °F 29.1 °F 19.2 °F 48% 30.29 in 10.0 mi WNW 12.7 mph 21.9 mph N/A   Overcast
6:16 PM 37.9 °F 30.0 °F 18.9 °F 46% 30.30 in 10.0 mi West 12.7 mph 24.2 mph N/A   Overcast
6:37 PM 36.9 °F 31.4 °F 18.7 °F 48% 30.31 in 10.0 mi WNW 6.9 mph - N/A   Overcast
6:56 PM 36.9 °F 28.7 °F 17.1 °F 45% 30.31 in 10.0 mi West 12.7 mph - N/A   Mostly Cloudy
7:16 PM 37.4 °F 31.4 °F 19.4 °F 48% 30.31 in 10.0 mi WNW 8.1 mph - N/A   Mostly Cloudy
7:36 PM 36.5 °F 31.0 °F 17.6 °F 46% 30.32 in 10.0 mi West 6.9 mph - N/A   Mostly Cloudy
7:56 PM 36.0 °F 28.5 °F 18.5 °F 49% 30.33 in 10.0 mi West 10.4 mph - N/A   Mostly Cloudy
8:16 PM 35.6 °F 28.0 °F 18.9 °F 51% 30.34 in 10.0 mi NW 10.4 mph - N/A   Mostly Cloudy
8:36 PM 34.2 °F 30.0 °F 19.8 °F 56% 30.35 in 10.0 mi West 4.6 mph - N/A   Scattered Clouds
8:56 PM 34.5 °F 29.4 °F 19.6 °F 54% 30.36 in 10.0 mi WNW 5.8 mph - N/A   Mostly Cloudy
9:17 PM 33.8 °F 28.6 °F 20.5 °F 58% 30.37 in 10.0 mi WNW 5.8 mph - N/A   Mostly Cloudy
9:36 PM 32.9 °F 29.8 °F 21.2 °F 62% 30.38 in 10.0 mi WNW 3.5 mph - N/A   Clear
9:56 PM 32.9 °F 29.8 °F 21.2 °F 62% 30.39 in 10.0 mi West 3.5 mph - N/A   Clear
10:17 PM 32.4 °F - 21.0 °F 63% 30.40 in 10.0 mi Calm Calm - N/A   Clear
10:36 PM 32.4 °F - 21.2 °F 63% 30.41 in 10.0 mi Calm Calm - N/A   Clear
10:56 PM 32.0 °F - 21.4 °F 65% 30.42 in 10.0 mi Calm Calm - N/A   Clear
11:16 PM 31.5 °F - 24.3 °F 75% 30.42 in 10.0 mi Calm Calm - N/A   Clear
11:36 PM 30.9 °F - 24.1 °F 76% 30.43 in 10.0 mi Calm Calm - N/A   Clear
11:57 PM 31.6 °F - 22.3 °F 68% 30.43 in 10.0 mi Calm Calm - N/A   Clear